Wind_Speed
29 29 29 30 31 32 34 36 37 38 40 43 44 44 46 48 50 53 54 55 55 56 56 55 55 56 55 55 53 52 52 51 50 49 48 47 46 45 44 43 41 40 38 37
29 28 28 28 29 30 32 35 36 37 38 41 43 44 45 46 48 51 53 53 53 55 57 56 56 56 57 56 55 54 53 52 51 51 50 49 48 47 46 44 43 42 40 39
28 27 26 26 26 28 30 31 33 34 35 37 41 42 43 44 46 48 51 52 52 53 55 57 56 56 57 56 55 55 54 53 53 52 51 51 50 49 47 46 45 44 43 40
27 25 25 25 25 26 28 29 30 31 32 33 37 40 41 42 45 47 48 51 52 53 54 55 56 56 56 56 56 56 55 54 54 53 52 52 51 49 48 47 46 45 44 43
26 25 25 24 24 24 25 26 28 29 31 33 35 39 40 41 43 44 46 49 51 53 53 54 55 56 56 56 56 56 56 55 54 54 53 52 52 51 50 49 48 47 46 45
26 26 25 24 23 23 24 25 26 27 30 32 32 35 38 39 41 42 44 47 49 51 52 53 54 55 56 56 56 56 57 56 56 55 55 54 53 53 52 51 49 48 47 46
27 26 24 22 22 23 22 23 23 25 27 29 29 32 35 36 38 40 42 44 46 48 51 53 54 55 56 57 56 56 57 57 56 55 56 56 55 54 53 52 51 50 49 47
27 25 23 22 21 21 21 21 21 23 25 26 27 30 32 34 36 38 40 42 44 46 48 51 53 55 55 56 57 56 57 57 56 56 56 56 56 55 54 53 53 52 51 49
27 25 23 21 19 19 18 19 20 22 23 24 26 29 31 32 35 37 39 41 43 45 47 49 52 54 55 56 56 56 57 57 57 56 56 56 57 56 55 54 53 53 52 51
27 24 22 21 20 19 19 19 20 21 22 23 25 28 29 31 33 35 37 39 41 44 46 48 50 52 54 55 56 56 56 57 57 56 56 55 56 56 56 54 53 53 53 52
27 24 21 20 20 19 18 19 20 21 22 23 25 26 28 30 31 33 36 38 40 42 45 47 48 51 53 54 56 56 56 57 57 57 57 56 54 54 56 56 55 54 53 53
25 24 21 19 19 19 19 19 20 21 22 22 24 25 25 27 30 31 33 35 38 40 42 44 47 50 52 53 54 54 55 56 57 57 56 56 56 55 55 56 56 55 54 54
25 23 21 19 19 18 19 19 19 21 22 23 24 25 24 26 27 29 31 33 35 38 40 42 44 47 50 53 53 53 54 55 56 57 57 57 56 57 56 55 55 56 55 55
24 22 20 19 19 19 19 19 19 20 21 22 23 24 24 25 26 27 29 30 32 35 39 41 42 44 47 50 52 54 54 55 56 56 57 57 57 57 56 56 56 55 56 55
24 22 20 19 18 19 19 19 20 21 21 22 21 22 23 24 25 26 28 29 30 33 36 39 41 42 45 47 49 52 54 55 56 56 56 57 57 57 57 58 57 56 56 56
24 23 21 19 19 19 19 19 20 21 22 22 22 22 22 22 23 24 26 27 29 30 33 36 40 42 44 46 47 49 52 54 55 55 55 56 56 56 56 58 57 57 57 57
23 23 22 20 19 19 18 18 19 20 21 22 22 21 22 21 22 23 23 24 26 29 31 33 35 40 43 45 46 48 50 52 54 54 54 55 55 55 55 56 57 56 57 57
24 24 23 22 20 19 19 19 19 19 19 19 20 20 21 21 20 22 23 23 24 26 28 30 32 36 40 43 45 45 49 51 52 53 53 53 54 54 54 55 55 56 56 56
24 24 23 23 22 21 19 19 19 20 19 20 20 20 21 21 21 21 24 25 25 26 27 28 30 33 36 39 41 43 45 48 50 51 52 52 52 53 54 54 55 55 55 55
24 24 23 23 23 22 21 20 20 20 20 20 21 21 22 22 22 21 23 25 26 26 27 27 29 31 33 37 39 41 43 45 47 48 49 51 51 52 52 53 53 53 54 54
25 24 23 23 23 22 22 22 21 21 21 21 22 22 22 22 22 22 22 23 24 25 26 27 28 30 32 34 37 39 41 43 45 47 48 48 49 50 51 52 52 52 53 53
24 24 24 23 23 23 23 23 23 22 22 22 22 22 22 22 21 21 22 22 23 24 24 26 27 29 30 33 35 38 40 41 43 45 46 47 48 49 49 50 51 52 52 53
24 24 23 23 23 24 24 24 24 23 22 22 22 22 22 21 21 20 20 21 22 23 24 25 26 28 29 31 34 36 39 40 41 43 44 45 45 46 48 48 49 50 51 52
24 24 24 23 23 24 24 24 23 23 22 22 22 22 22 21 21 20 19 20 21 23 24 25 26 27 28 30 32 35 37 39 40 41 42 43 44 44 46 47 47 48 49 49
25 25 25 24 24 24 24 24 24 23 22 22 22 22 22 21 20 19 19 19 20 21 22 23 25 26 27 29 30 32 35 37 39 41 42 43 43 44 44 44 44 45 46 47
26 26 26 25 25 25 24 25 24 24 23 22 22 21 21 20 19 19 19 19 20 20 21 22 24 25 25 27 28 31 33 35 36 37 39 41 42 42 42 42 43 44 44 45
Wind_Direction
300 296 287 277 271 268 265 261 257 253 251 249 247 245 245 243 240 238 236 236 234 233 233 234 233 233 232 231 231 231 231 232 232 232 231 231 231 232 233 234 234 234 235 236
301 297 293 283 275 270 266 261 256 254 251 250 248 245 245 244 242 240 237 235 234 233 232 232 232 232 232 231 230 230 231 231 232 232 232 232 232 233 233 234 235 235 235 236
304 300 296 288 279 273 268 261 257 254 252 250 250 249 248 247 244 241 238 236 235 234 233 232 231 231 232 231 231 230 231 231 231 232 232 232 232 233 233 234 235 236 236 237
305 301 296 290 284 279 271 263 259 255 253 253 252 251 247 247 246 243 240 237 236 235 234 232 231 230 231 230 230 230 230 231 231 231 232 232 232 232 233 234 235 236 236 237
308 304 297 290 286 283 277 268 261 256 256 256 254 254 251 249 247 244 241 238 236 235 234 232 231 231 230 230 230 230 230 231 231 231 231 232 232 232 233 234 235 236 237 238
309 306 301 293 288 284 281 273 265 261 261 260 255 254 253 251 249 246 243 239 237 235 234 232 231 230 230 230 230 230 230 230 231 231 231 232 232 232 233 234 235 236 237 238
308 306 302 297 289 284 281 275 271 269 265 263 258 257 255 252 249 247 244 240 238 236 234 232 231 230 230 229 229 230 230 230 231 231 231 232 232 233 234 234 234 236 236 237
311 307 302 296 291 288 283 276 271 273 273 270 262 259 258 255 252 249 245 242 239 238 236 233 232 231 231 231 229 230 230 230 231 231 232 232 232 233 234 234 235 235 235 237
315 309 302 294 287 285 283 275 272 274 276 273 267 262 260 257 254 251 248 244 241 239 238 236 233 232 231 231 230 230 231 230 231 231 232 232 232 232 233 234 234 235 235 237
317 310 303 294 287 283 281 278 277 276 276 275 273 268 262 259 256 253 250 247 245 242 239 237 235 232 231 230 230 230 231 231 231 231 231 232 233 233 233 234 234 235 235 236
318 313 309 299 289 285 281 281 279 279 278 275 276 273 267 263 257 255 252 249 247 243 240 237 236 233 231 231 230 230 231 231 231 231 231 232 233 233 234 234 234 235 236 236
319 315 310 306 294 285 282 282 283 280 280 275 274 275 269 264 258 258 255 251 248 243 239 237 235 234 232 231 230 229 230 231 231 231 232 232 233 233 234 234 234 234 236 237
323 318 314 309 301 292 288 284 284 284 284 278 275 273 270 265 259 259 257 253 249 244 240 236 235 233 232 230 230 230 230 231 231 231 232 232 233 234 234 235 235 235 235 236
324 319 314 310 305 296 291 288 284 287 290 286 280 276 270 265 261 261 258 255 250 244 240 237 234 232 230 230 229 230 230 230 231 231 232 233 233 233 234 234 235 236 236 237
324 321 315 310 305 296 294 292 286 285 289 289 286 283 277 268 263 261 259 256 250 245 242 239 235 233 230 230 230 230 230 230 231 232 233 234 234 234 235 235 236 236 237 238
323 322 317 310 305 300 297 294 290 289 290 288 287 286 284 275 267 262 258 255 250 246 243 240 237 234 231 230 230 231 230 230 231 232 233 234 235 235 237 237 237 237 238 238
322 322 321 316 309 304 298 299 296 293 293 288 286 286 285 279 270 267 262 257 252 247 243 240 238 235 232 231 231 231 231 231 231 232 233 234 235 235 236 237 237 237 238 239
320 319 320 320 314 309 305 300 299 298 297 292 288 285 284 279 273 268 264 260 255 252 247 241 239 236 234 232 231 233 232 231 231 232 233 234 235 235 236 237 238 238 238 239
319 317 317 317 315 313 310 305 301 300 296 294 293 288 286 279 273 268 264 260 258 255 250 245 242 237 233 231 231 233 232 231 232 232 233 234 235 236 236 237 238 239 239 240
318 316 315 315 313 314 315 310 305 303 299 296 295 292 287 283 276 270 266 262 259 256 252 248 245 240 235 231 231 231 232 232 232 232 233 234 235 237 237 237 238 239 240 240
317 315 314 312 311 312 313 311 308 305 303 300 297 294 289 284 280 274 269 265 260 256 252 249 246 242 238 233 232 231 231 232 231 232 233 234 236 238 238 238 238 240 241 241
315 316 315 312 310 312 311 308 306 305 303 300 297 294 289 285 282 277 271 267 262 255 252 249 245 241 239 237 234 232 231 231 231 232 233 234 237 238 238 239 240 240 241 242
314 315 314 313 312 312 309 306 304 303 300 299 297 293 290 285 282 279 274 268 263 258 253 249 245 242 240 239 236 234 233 231 231 232 232 234 237 238 238 238 239 240 241 243
312 312 312 313 312 311 308 305 304 303 300 297 296 293 288 284 282 280 276 272 267 261 255 249 245 242 242 240 238 236 234 233 233 232 232 234 236 237 238 238 239 240 241 242
313 312 311 311 310 309 307 305 304 303 301 299 295 292 288 283 282 281 277 273 271 264 258 253 248 245 244 242 241 239 237 235 234 234 234 235 236 237 238 239 240 241 242 242
312 313 312 311 310 309 307 305 305 304 302 301 297 293 289 284 282 281 280 279 274 267 260 256 252 249 245 242 242 241 240 237 236 235 235 236 237 238 239 240 240 241 242 243
Height
5621 5619 5616 5615 5615 5616 5617 5618 5619 5622 5625 5627 5631 5634 5638 5643 5648 5654 5660 5666 5672 5679 5686 5692 5699 5705 5711 5717 5723 5729 5736 5742 5747 5753 5758 5764 5769 5774 5779 5784 5789 5793 5798 5802
5613 5610 5609 5607 5607 5606 5607 5607 5609 5612 5615 5616 5619 5622 5626 5631 5636 5641 5646 5653 5660 5666 5672 5679 5686 5692 5699 5706 5712 5718 5725 5731 5737 5743 5749 5754 5760 5765 5770 5776 5781 5785 5790 5794
5606 5604 5601 5599 5598 5598 5598 5599 5600 5601 5604 5606 5608 5612 5616 5619 5623 5628 5634 5641 5647 5653 5660 5667 5673 5680 5687 5694 5701 5707 5714 5720 5726 5732 5738 5744 5750 5755 5761 5766 5772 5776 5781 5786
5600 5597 5595 5592 5591 5590 5590 5591 5592 5593 5595 5597 5599 5600 5605 5608 5612 5617 5622 5628 5634 5640 5646 5654 5661 5668 5675 5682 5689 5696 5702 5709 5715 5721 5728 5734 5740 5746 5752 5758 5762 5767 5772 5777
5593 5591 5589 5586 5585 5583 5583 5583 5584 5585 5586 5588 5590 5591 5595 5597 5600 5605 5611 5616 5622 5628 5635 5642 5649 5656 5663 5670 5677 5684 5691 5698 5704 5711 5717 5723 5730 5736 5742 5748 5753 5758 5763 5768
5588 5584 5582 5580 5578 5577 5576 5577 5577 5578 5578 5579 5582 5583 5585 5587 5590 5595 5599 5604 5610 5617 5623 5630 5637 5644 5651 5658 5665 5672 5679 5686 5693 5699 5706 5713 5719 5726 5732 5738 5743 5749 5754 5759
5582 5579 5576 5574 5573 5572 5571 5571 5570 5570 5570 5571 5574 5574 5577 5579 5581 5584 5587 5593 5599 5605 5611 5618 5625 5631 5638 5645 5653 5660 5667 5674 5681 5688 5695 5702 5708 5715 5721 5727 5733 5739 5744 5749
5575 5573 5570 5567 5566 5565 5564 5565 5565 5565 5564 5565 5566 5566 5569 5570 5572 5574 5578 5583 5588 5594 5599 5606 5612 5619 5626 5633 5641 5648 5655 5663 5670 5676 5683 5690 5697 5704 5710 5716 5723 5728 5734 5739
5569 5567 5564 5561 5560 5559 5559 5559 5560 5560 5558 5558 5558 5559 5561 5561 5563 5566 5569 5573 5578 5583 5588 5594 5600 5607 5614 5621 5629 5636 5643 5651 5658 5665 5672 5678 5685 5692 5699 5705 5711 5717 5723 5728
5563 5561 5559 5557 5555 5555 5554 5554 5554 5553 5551 5551 5552 5552 5553 5553 5554 5557 5560 5564 5568 5572 5577 5582 5588 5595 5602 5609 5616 5624 5631 5639 5646 5653 5660 5666 5673 5680 5687 5693 5699 5706 5712 5717
5559 5556 5554 5552 5550 5549 5549 5549 5547 5547 5546 5545 5545 5547 5545 5546 5547 5549 5552 5554 5558 5561 5566 5571 5577 5583 5590 5597 5604 5612 5619 5627 5634 5641 5649 5655 5661 5668 5675 5682 5688 5694 5700 5706
5555 5551 5549 5547 5545 5543 5543 5543 5542 5542 5541 5539 5538 5541 5538 5538 5540 5541 5543 5545 5547 5551 5555 5560 5565 5571 5578 5585 5592 5600 5607 5615 5622 5629 5637 5644 5650 5657 5663 5670 5676 5683 5689 5695
5551 5547 5544 5542 5542 5540 5538 5537 5536 5535 5534 5533 5532 5534 5531 5531 5532 5533 5534 5536 5538 5541 5545 5550 5555 5560 5567 5574 5581 5588 5596 5603 5610 5617 5624 5631 5638 5645 5652 5658 5664 5671 5677 5683
5547 5544 5541 5539 5536 5534 5533 5532 5531 5530 5528 5527 5526 5525 5525 5525 5525 5526 5527 5527 5529 5532 5535 5540 5545 5550 5556 5562 5569 5577 5584 5591 5598 5605 5612 5619 5626 5633 5640 5646 5652 5659 5665 5671
5544 5541 5537 5535 5532 5530 5528 5527 5526 5525 5523 5522 5520 5519 5518 5518 5519 5519 5519 5519 5521 5524 5527 5530 5535 5540 5546 5552 5558 5565 5572 5580 5587 5594 5600 5607 5614 5621 5627 5633 5640 5646 5652 5659
5540 5537 5534 5532 5529 5526 5524 5523 5521 5520 5518 5516 5515 5514 5513 5511 5511 5511 5512 5512 5514 5516 5518 5522 5526 5530 5536 5542 5548 5554 5561 5568 5575 5582 5589 5596 5602 5608 5614 5621 5627 5634 5640 5646
5537 5533 5530 5527 5524 5522 5521 5519 5516 5515 5513 5511 5509 5509 5507 5506 5505 5505 5505 5505 5506 5508 5511 5514 5517 5521 5526 5532 5538 5544 5550 5557 5564 5571 5577 5584 5590 5596 5602 5608 5614 5620 5627 5633
5533 5529 5526 5523 5521 5518 5519 5514 5512 5510 5508 5506 5504 5503 5501 5500 5500 5499 5499 5499 5500 5501 5503 5506 5509 5513 5517 5522 5528 5534 5540 5546 5553 5559 5566 5572 5578 5584 5590 5596 5602 5608 5614 5620
5529 5526 5522 5519 5516 5514 5513 5510 5507 5505 5504 5501 5499 5498 5496 5495 5494 5494 5493 5493 5493 5494 5496 5498 5501 5505 5509 5513 5518 5523 5529 5535 5542 5548 5555 5561 5567 5573 5578 5584 5590 5595 5601 5607
5525 5521 5519 5515 5511 5509 5509 5506 5502 5501 5499 5497 5494 5492 5491 5489 5489 5489 5487 5487 5487 5488 5489 5491 5494 5497 5500 5504 5509 5514 5519 5525 5531 5537 5544 5550 5555 5561 5567 5572 5578 5583 5589 5594
5521 5517 5514 5511 5507 5505 5504 5500 5498 5497 5495 5491 5489 5487 5485 5483 5483 5482 5481 5480 5480 5481 5483 5485 5487 5490 5493 5496 5500 5505 5510 5515 5521 5527 5533 5539 5544 5549 5555 5560 5566 5571 5577 5582
5516 5513 5510 5506 5503 5503 5498 5495 5494 5491 5488 5486 5483 5481 5479 5478 5476 5475 5475 5474 5474 5475 5476 5478 5480 5482 5485 5488 5492 5496 5501 5506 5511 5517 5523 5528 5533 5538 5543 5549 5554 5559 5564 5570
5513 5510 5505 5503 5501 5496 5493 5490 5487 5485 5483 5480 5478 5476 5474 5472 5471 5470 5469 5468 5468 5469 5470 5471 5473 5475 5478 5481 5484 5488 5492 5497 5502 5507 5512 5518 5523 5527 5532 5537 5543 5547 5552 5558
5508 5504 5501 5497 5495 5491 5487 5484 5482 5479 5477 5474 5472 5470 5468 5467 5465 5464 5463 5463 5462 5463 5463 5464 5466 5468 5470 5473 5476 5480 5484 5488 5493 5497 5503 5507 5512 5517 5521 5526 5531 5536 5541 5546
5503 5499 5496 5492 5489 5486 5483 5479 5476 5473 5471 5469 5466 5464 5462 5461 5460 5458 5458 5457 5457 5457 5457 5458 5460 5461 5463 5466 5468 5472 5475 5479 5484 5488 5493 5497 5502 5507 5512 5516 5521 5525 5530 5534
5498 5494 5490 5487 5484 5480 5477 5474 5471 5468 5465 5463 5461 5459 5457 5455 5454 5453 5452 5452 5451 5451 5451 5452 5453 5455 5456 5458 5461 5464 5467 5471 5475 5479 5484 5488 5493 5497 5502 5506 5510 5514 5519 5523